THY2DM LTAC-LTAI

Flight info

Callsign THY2DM
Flight time 0h 50m
Altitude 37000
Route HALIL UW77 HISAR
Aircraft A20N/M-SDE2E3FGHIRWXY/LB1

Departure

Time 2026-05-06 21:13
Airport Esenboğa International Airport (LTAC)

Arrival

Time 2026-05-06 22:03
Airport Antalya International Airport (LTAI)
Time Latitude Longitude Altitude Speed Heading
2026-05-06 21:01 40.11518 32.99004 3113 ft 0 kts 134°
2026-05-06 21:04 40.11532 32.98984 3113 ft 4 kts 134°
2026-05-06 21:04 40.11551 32.98960 3113 ft 4 kts 139°
2026-05-06 21:05 40.11565 32.98945 3114 ft 2 kts 164°
2026-05-06 21:05 40.11576 32.98943 3114 ft 2 kts 204°
2026-05-06 21:05 40.11586 32.98950 3114 ft 2 kts 223°
2026-05-06 21:05 40.11594 32.98960 3113 ft 2 kts 226°
2026-05-06 21:06 40.11597 32.98965 3113 ft 0 kts 227°
2026-05-06 21:08 40.11596 32.98963 3113 ft 1 kts 227°
2026-05-06 21:08 40.11585 32.98947 3113 ft 4 kts 227°
2026-05-06 21:08 40.11563 32.98916 3113 ft 6 kts 227°
2026-05-06 21:09 40.11526 32.98877 3113 ft 8 kts 217°
2026-05-06 21:09 40.11479 32.98830 3113 ft 9 kts 217°
2026-05-06 21:09 40.11420 32.98773 3113 ft 12 kts 217°
2026-05-06 21:09 40.11350 32.98705 3112 ft 13 kts 217°
2026-05-06 21:10 40.11279 32.98628 3110 ft 12 kts 231°
2026-05-06 21:10 40.11304 32.98552 3110 ft 11 kts 344°
2026-05-06 21:10 40.11378 32.98596 3110 ft 13 kts 35°
2026-05-06 21:10 40.11455 32.98670 3111 ft 15 kts 37°
2026-05-06 21:11 40.11542 32.98753 3112 ft 16 kts 35°
2026-05-06 21:11 40.11634 32.98840 3112 ft 15 kts 36°
2026-05-06 21:11 40.11697 32.98818 3112 ft 12 kts 304°
2026-05-06 21:11 40.11751 32.98720 3113 ft 14 kts 307°
2026-05-06 21:12 40.11815 32.98609 3113 ft 16 kts 306°
2026-05-06 21:12 40.11892 32.98509 3113 ft 14 kts 344°
2026-05-06 21:12 40.11981 32.98556 3114 ft 14 kts 35°
2026-05-06 21:12 40.12138 32.98706 3115 ft 58 kts 36°
2026-05-06 21:13 40.12640 32.99186 3121 ft 117 kts 36°
2026-05-06 21:13 40.13433 32.99933 3141 ft 161 kts 34°
2026-05-06 21:13 40.14379 33.00817 3556 ft 173 kts 36°
2026-05-06 21:13 40.15388 33.01787 4158 ft 186 kts 37°
2026-05-06 21:14 40.16451 33.02836 4783 ft 196 kts 38°
2026-05-06 21:14 40.17538 33.03936 5402 ft 199 kts 38°
2026-05-06 21:14 40.18614 33.05052 6033 ft 201 kts 39°
2026-05-06 21:14 40.19706 33.06211 6674 ft 203 kts 40°
2026-05-06 21:15 40.20794 33.07393 7290 ft 204 kts 40°
2026-05-06 21:15 40.21877 33.08596 7914 ft 205 kts 41°
2026-05-06 21:15 40.23080 33.09690 8365 ft 218 kts 18°
2026-05-06 21:15 40.24656 33.09811 8615 ft 242 kts 348°
2026-05-06 21:16 40.26199 33.08832 8981 ft 263 kts 315°
2026-05-06 21:16 40.27216 33.06753 9442 ft 282 kts 292°
2026-05-06 21:16 40.27973 33.04346 10195 ft 289 kts 290°
2026-05-06 21:16 40.28703 33.01789 10578 ft 311 kts 289°
2026-05-06 21:17 40.29467 32.99016 10811 ft 335 kts 289°
2026-05-06 21:17 40.30279 32.96071 11226 ft 350 kts 289°
2026-05-06 21:17 40.31127 32.93056 11897 ft 355 kts 290°
2026-05-06 21:17 40.32001 32.90016 12635 ft 358 kts 290°
2026-05-06 21:18 40.32895 32.86941 13349 ft 363 kts 291°
2026-05-06 21:18 40.33801 32.83835 14069 ft 367 kts 291°
2026-05-06 21:18 40.34713 32.80704 14734 ft 370 kts 291°
2026-05-06 21:18 40.35634 32.77541 15385 ft 372 kts 291°
2026-05-06 21:19 40.36397 32.74291 16002 ft 376 kts 281°
2026-05-06 21:19 40.36525 32.70860 16626 ft 380 kts 265°
2026-05-06 21:19 40.35847 32.67501 17260 ft 386 kts 245°
2026-05-06 21:19 40.34254 32.64651 17879 ft 393 kts 223°
2026-05-06 21:20 40.31923 32.62747 18482 ft 400 kts 204°
2026-05-06 21:20 40.29326 32.61395 19004 ft 404 kts 203°
2026-05-06 21:20 40.26696 32.60048 19539 ft 408 kts 203°
2026-05-06 21:20 40.24042 32.58688 20087 ft 411 kts 203°
2026-05-06 21:21 40.21288 32.57581 20609 ft 417 kts 195°
2026-05-06 21:21 40.18451 32.56712 21118 ft 421 kts 195°
2026-05-06 21:21 40.15592 32.55836 21612 ft 424 kts 195°
2026-05-06 21:21 40.12700 32.54948 22093 ft 428 kts 195°
2026-05-06 21:22 40.09836 32.53876 22562 ft 429 kts 203°
2026-05-06 21:22 40.07134 32.52228 23036 ft 429 kts 213°
2026-05-06 21:22 40.04623 32.50138 23500 ft 431 kts 216°
2026-05-06 21:22 40.02097 32.47989 23932 ft 434 kts 216°
2026-05-06 21:23 39.99554 32.45837 24330 ft 437 kts 216°
2026-05-06 21:23 39.96991 32.43677 24734 ft 440 kts 216°
2026-05-06 21:23 39.94411 32.41510 25133 ft 442 kts 216°
2026-05-06 21:23 39.91815 32.39339 25519 ft 445 kts 216°
2026-05-06 21:24 39.89085 32.37406 25896 ft 451 kts 207°
2026-05-06 21:24 39.86147 32.36038 26275 ft 457 kts 198°
2026-05-06 21:24 39.83019 32.35197 26663 ft 462 kts 193°
2026-05-06 21:24 39.79844 32.34451 27047 ft 464 kts 193°
2026-05-06 21:25 39.76654 32.33700 27432 ft 467 kts 193°
2026-05-06 21:25 39.73446 32.32943 27811 ft 470 kts 193°
2026-05-06 21:25 39.70218 32.32176 28177 ft 473 kts 193°
2026-05-06 21:25 39.66976 32.31406 28545 ft 475 kts 193°
2026-05-06 21:26 39.63713 32.30639 28914 ft 478 kts 193°
2026-05-06 21:26 39.60409 32.29927 29280 ft 482 kts 189°
2026-05-06 21:26 39.57039 32.29761 29684 ft 487 kts 180°
2026-05-06 21:26 39.53668 32.30269 30208 ft 489 kts 170°
2026-05-06 21:27 39.50377 32.31401 30652 ft 490 kts 164°
2026-05-06 21:27 39.47116 32.32681 31096 ft 489 kts 165°
2026-05-06 21:27 39.43799 32.33594 31556 ft 486 kts 175°
2026-05-06 21:27 39.40442 32.33794 32031 ft 481 kts 185°
2026-05-06 21:28 39.37142 32.33322 32532 ft 475 kts 194°
2026-05-06 21:28 39.33969 32.32216 33026 ft 469 kts 204°
2026-05-06 21:28 39.31002 32.30528 33501 ft 464 kts 211°
2026-05-06 21:28 39.28126 32.28638 33966 ft 464 kts 211°
2026-05-06 21:29 39.25246 32.26757 34408 ft 463 kts 210°
2026-05-06 21:29 39.22377 32.24893 34834 ft 461 kts 210°
2026-05-06 21:29 39.19511 32.23037 35230 ft 461 kts 210°
2026-05-06 21:29 39.16649 32.21182 35614 ft 460 kts 210°
2026-05-06 21:30 39.13793 32.19331 35971 ft 460 kts 210°
2026-05-06 21:30 39.10927 32.17478 36322 ft 460 kts 210°
2026-05-06 21:30 39.08073 32.15634 36681 ft 459 kts 210°
2026-05-06 21:30 39.05220 32.13790 37034 ft 459 kts 210°
2026-05-06 21:31 39.02366 32.11945 37140 ft 460 kts 210°
2026-05-06 21:31 38.96642 32.08242 37152 ft 461 kts 210°
2026-05-06 21:32 38.90902 32.04553 37153 ft 462 kts 211°
2026-05-06 21:32 38.85159 32.00863 36970 ft 462 kts 211°
2026-05-06 21:32 38.82280 31.99010 36711 ft 462 kts 211°
2026-05-06 21:33 38.79409 31.97162 36468 ft 462 kts 211°
2026-05-06 21:33 38.76528 31.95312 36198 ft 463 kts 211°
2026-05-06 21:33 38.73649 31.93470 35947 ft 463 kts 211°
2026-05-06 21:33 38.70770 31.91630 35704 ft 463 kts 211°
2026-05-06 21:34 38.67886 31.89787 35462 ft 463 kts 211°
2026-05-06 21:34 38.65004 31.87945 35226 ft 464 kts 211°
2026-05-06 21:34 38.62119 31.86103 34987 ft 465 kts 211°
2026-05-06 21:34 38.59223 31.84258 34730 ft 465 kts 212°
2026-05-06 21:35 38.56314 31.82409 34505 ft 466 kts 212°
2026-05-06 21:35 38.53405 31.80564 34269 ft 467 kts 212°
2026-05-06 21:35 38.50491 31.78714 34005 ft 469 kts 212°
2026-05-06 21:35 38.47564 31.76852 33551 ft 471 kts 212°
2026-05-06 21:36 38.44606 31.74969 32445 ft 478 kts 211°
2026-05-06 21:36 38.41618 31.73072 31474 ft 482 kts 211°
2026-05-06 21:36 38.38601 31.71161 30409 ft 488 kts 211°
2026-05-06 21:36 38.35552 31.69230 29406 ft 488 kts 211°
2026-05-06 21:37 38.32496 31.67298 28184 ft 492 kts 210°
2026-05-06 21:37 38.29440 31.65369 27275 ft 489 kts 210°
2026-05-06 21:37 38.26393 31.63454 26357 ft 487 kts 210°
2026-05-06 21:37 38.23392 31.61568 25999 ft 472 kts 210°
2026-05-06 21:38 38.20506 31.59761 25858 ft 454 kts 210°
2026-05-06 21:38 38.17726 31.58022 25734 ft 437 kts 210°
2026-05-06 21:38 38.15053 31.56347 25613 ft 421 kts 210°
2026-05-06 21:38 38.12417 31.54861 25490 ft 410 kts 202°
2026-05-06 21:39 38.09659 31.54053 25355 ft 403 kts 190°
2026-05-06 21:39 38.06923 31.53825 25191 ft 395 kts 186°
2026-05-06 21:39 38.04164 31.53646 24882 ft 390 kts 186°
2026-05-06 21:39 38.01502 31.53476 24511 ft 386 kts 186°
2026-05-06 21:40 37.98830 31.53307 24139 ft 383 kts 186°
2026-05-06 21:40 37.96142 31.53134 23749 ft 380 kts 186°
2026-05-06 21:40 37.93543 31.52968 23342 ft 377 kts 186°
2026-05-06 21:40 37.90940 31.52808 22992 ft 372 kts 186°
2026-05-06 21:41 37.88335 31.52648 22722 ft 369 kts 186°
2026-05-06 21:41 37.85773 31.52486 22463 ft 368 kts 186°
2026-05-06 21:41 37.83222 31.52321 22196 ft 366 kts 186°
2026-05-06 21:41 37.80681 31.52156 21917 ft 366 kts 186°
2026-05-06 21:42 37.78136 31.51990 21663 ft 365 kts 186°
2026-05-06 21:42 37.75612 31.51780 21402 ft 363 kts 188°
2026-05-06 21:42 37.73111 31.51472 21142 ft 360 kts 189°
2026-05-06 21:42 37.70625 31.51109 20881 ft 359 kts 190°
2026-05-06 21:43 37.68149 31.50726 20620 ft 358 kts 191°
2026-05-06 21:43 37.65678 31.50343 20367 ft 357 kts 191°
2026-05-06 21:43 37.63213 31.49973 20108 ft 356 kts 190°
2026-05-06 21:43 37.60755 31.49616 19847 ft 354 kts 190°
2026-05-06 21:44 37.58337 31.49274 19599 ft 353 kts 190°
2026-05-06 21:44 37.55900 31.48937 19345 ft 351 kts 190°
2026-05-06 21:44 37.53475 31.48602 19093 ft 350 kts 190°
2026-05-06 21:44 37.51057 31.48265 18839 ft 348 kts 190°
2026-05-06 21:45 37.48651 31.47927 18587 ft 348 kts 190°
2026-05-06 21:45 37.46217 31.47587 18320 ft 347 kts 189°
2026-05-06 21:45 37.43855 31.47256 18064 ft 345 kts 189°
2026-05-06 21:45 37.41475 31.46924 17799 ft 344 kts 189°
2026-05-06 21:46 37.39101 31.46595 17550 ft 342 kts 189°
2026-05-06 21:46 37.36742 31.46268 17297 ft 340 kts 189°
2026-05-06 21:46 37.35155 31.46048 17124 ft 339 kts 189°
2026-05-06 21:46 37.32055 31.45620 16790 ft 337 kts 189°
2026-05-06 21:47 37.30480 31.45403 16607 ft 336 kts 189°
2026-05-06 21:47 37.28160 31.45081 16361 ft 335 kts 189°
2026-05-06 21:47 37.25847 31.44759 16113 ft 333 kts 189°
2026-05-06 21:47 37.23550 31.44441 15864 ft 332 kts 189°
2026-05-06 21:48 37.21262 31.44127 15607 ft 330 kts 189°
2026-05-06 21:48 37.18985 31.43813 15362 ft 329 kts 189°
2026-05-06 21:48 37.16718 31.43493 15119 ft 326 kts 190°
2026-05-06 21:48 37.14581 31.42695 14869 ft 318 kts 212°
2026-05-06 21:49 37.12909 31.40969 14548 ft 311 kts 235°
2026-05-06 21:49 37.11939 31.38605 14231 ft 302 kts 258°
2026-05-06 21:49 37.11760 31.36033 13975 ft 295 kts 278°
2026-05-06 21:49 37.11987 31.33484 13707 ft 295 kts 279°
2026-05-06 21:50 37.12215 31.30926 13468 ft 294 kts 278°
2026-05-06 21:50 37.12437 31.28382 13257 ft 293 kts 278°
2026-05-06 21:50 37.12653 31.25884 13109 ft 284 kts 278°
2026-05-06 21:50 37.12861 31.23461 12965 ft 275 kts 278°
2026-05-06 21:51 37.13065 31.21109 12827 ft 267 kts 278°
2026-05-06 21:51 37.13269 31.18819 12645 ft 262 kts 279°
2026-05-06 21:51 37.13473 31.16577 12495 ft 258 kts 279°
2026-05-06 21:51 37.13677 31.14349 12319 ft 257 kts 279°
2026-05-06 21:52 37.13772 31.12118 12131 ft 258 kts 265°
2026-05-06 21:52 37.13240 31.09972 11943 ft 262 kts 243°
2026-05-06 21:52 37.12057 31.08237 11745 ft 266 kts 219°
2026-05-06 21:52 37.10454 31.07059 11560 ft 268 kts 210°
2026-05-06 21:53 37.08808 31.05959 11351 ft 267 kts 210°
2026-05-06 21:53 37.07188 31.04874 11156 ft 266 kts 210°
2026-05-06 21:53 37.05557 31.03779 10958 ft 266 kts 210°
2026-05-06 21:53 37.03931 31.02686 10753 ft 265 kts 210°
2026-05-06 21:54 37.02309 31.01597 10606 ft 264 kts 210°
2026-05-06 21:54 37.00696 31.00515 10416 ft 261 kts 210°
2026-05-06 21:54 36.99113 30.99455 10236 ft 256 kts 209°
2026-05-06 21:54 36.97552 30.98413 10052 ft 252 kts 209°
2026-05-06 21:55 36.96025 30.97394 9867 ft 246 kts 209°
2026-05-06 21:55 36.94525 30.96393 9677 ft 242 kts 209°
2026-05-06 21:55 36.93044 30.95403 9515 ft 241 kts 210°
2026-05-06 21:55 36.91563 30.94411 9341 ft 241 kts 210°
2026-05-06 21:56 36.90004 30.93638 9162 ft 242 kts 195°
2026-05-06 21:56 36.88290 30.93332 8546 ft 257 kts 185°
2026-05-06 21:56 36.86445 30.93158 7835 ft 275 kts 185°
2026-05-06 21:56 36.84495 30.92979 7087 ft 286 kts 185°
2026-05-06 21:57 36.82499 30.92796 6338 ft 289 kts 185°
2026-05-06 21:57 36.80484 30.92605 5554 ft 292 kts 185°
2026-05-06 21:57 36.78453 30.92408 4776 ft 293 kts 185°
2026-05-06 21:57 36.76417 30.92187 4039 ft 291 kts 189°
2026-05-06 21:58 36.74559 30.91391 3586 ft 277 kts 211°
2026-05-06 21:58 36.73118 30.89884 3149 ft 266 kts 231°
2026-05-06 21:58 36.72230 30.87926 2769 ft 255 kts 252°
2026-05-06 21:58 36.71955 30.85859 2708 ft 231 kts 271°
2026-05-06 21:59 36.72173 30.83981 2652 ft 210 kts 288°
2026-05-06 21:59 36.72765 30.82357 2606 ft 205 kts 303°
2026-05-06 21:59 36.73643 30.81037 2571 ft 192 kts 318°
2026-05-06 21:59 36.74686 30.80097 2546 ft 182 kts 332°
2026-05-06 22:00 36.75796 30.79528 2502 ft 162 kts 345°
2026-05-06 22:00 36.76838 30.79294 2370 ft 146 kts 356°
2026-05-06 22:00 36.77827 30.79313 2199 ft 140 kts
2026-05-06 22:00 36.78789 30.79445 2031 ft 138 kts
2026-05-06 22:01 36.79737 30.79574 1855 ft 136 kts
2026-05-06 22:01 36.80679 30.79703 1674 ft 136 kts
2026-05-06 22:01 36.81616 30.79832 1487 ft 136 kts
2026-05-06 22:01 36.82553 30.79960 1309 ft 135 kts
2026-05-06 22:02 36.83483 30.80088 1125 ft 134 kts
2026-05-06 22:02 36.84412 30.80216 941 ft 133 kts
2026-05-06 22:02 36.85334 30.80342 759 ft 133 kts
2026-05-06 22:02 36.86243 30.80467 578 ft 131 kts
2026-05-06 22:03 36.87152 30.80592 401 ft 131 kts
2026-05-06 22:03 36.88065 30.80721 223 ft 132 kts
2026-05-06 22:03 36.88900 30.80828 196 ft 101 kts
2026-05-06 22:03 36.89423 30.80903 192 ft 45 kts
2026-05-06 22:04 36.89671 30.80944 198 ft 33 kts
2026-05-06 22:04 36.89819 30.80954 197 ft 14 kts 353°
2026-05-06 22:04 36.89922 30.80927 196 ft 16 kts 343°
2026-05-06 22:04 36.90036 30.80869 195 ft 19 kts 336°
2026-05-06 22:05 36.90087 30.80789 192 ft 13 kts 255°
2026-05-06 22:05 36.90015 30.80753 198 ft 13 kts 187°
2026-05-06 22:05 36.89915 30.80737 192 ft 16 kts 187°
2026-05-06 22:05 36.89814 30.80725 200 ft 13 kts 185°
2026-05-06 22:06 36.89722 30.80714 193 ft 13 kts 186°
2026-05-06 22:06 36.89696 30.80638 204 ft 11 kts 278°
2026-05-06 22:06 36.89698 30.80620 195 ft 0 kts 278°